| time (UTC) | temp F | wind direction | speed MPH | gust MPH | rain 1hr in | rain 24hr in | rain mn in | humidity % | barometer mb |
| 20260831225553 | 99 | 195 | 6.0 | 16.0 | 0.00 | 0.00 | 0.00 | 15 | 1010.3 |
| 20260831225053 | 99 | 157 | 6.0 | 13.0 | 0.00 | 0.00 | 0.00 | 15 | 1010.3 |
| 20260831224053 | 99 | 190 | 4.0 | 19.0 | 0.00 | 0.00 | 0.00 | 15 | 1010.5 |
| 20260831223553 | 99 | 202 | 9.0 | 19.0 | 0.00 | 0.00 | 0.00 | 15 | 1010.5 |
| 20260831223053 | 100 | 178 | 4.0 | 13.0 | 0.00 | 0.00 | 0.00 | 15 | 1010.8 |
| 20260831222053 | 100 | 199 | 10.0 | 11.0 | 0.00 | 0.00 | 0.00 | 16 | 1010.8 |
| 20260831221053 | 99 | 169 | 3.0 | 15.0 | 0.00 | 0.00 | 0.00 | 15 | 1011.0 |
| 20260831220553 | 99 | 218 | 7.0 | 15.0 | 0.00 | 0.00 | 0.00 | 14 | 1011.1 |
| 20260831215553 | 99 | 189 | 5.0 | 16.0 | 0.00 | 0.00 | 0.00 | 15 | 1011.3 |
| 20260831215053 | 99 | 198 | 6.0 | 19.0 | 0.00 | 0.00 | 0.00 | 15 | 1011.5 |
| 20260831214053 | 99 | 194 | 13.0 | 13.0 | 0.00 | 0.00 | 0.00 | 15 | 1011.5 |
| 20260831213553 | 98 | 97 | 5.0 | 8.0 | 0.00 | 0.00 | 0.00 | 16 | 1011.7 |
| 20260831212053 | 98 | 226 | 12.0 | 18.0 | 0.00 | 0.00 | 0.00 | 16 | 1012.0 |
| 20260831211553 | 99 | 217 | 6.0 | 15.0 | 0.00 | 0.00 | 0.00 | 16 | 1012.1 |
| 20260831210553 | 99 | 212 | 9.0 | 16.0 | 0.00 | 0.00 | 0.00 | 15 | 1012.2 |
| 20260831210053 | 98 | 165 | 6.0 | 16.0 | 0.00 | 0.00 | 0.00 | 16 | 1012.3 |
| 20260831205553 | 98 | 160 | 8.0 | 16.0 | 0.00 | 0.00 | 0.00 | 16 | 1012.4 |
| 20260831205053 | 99 | 204 | 9.0 | 17.0 | 0.00 | 0.00 | 0.00 | 17 | 1012.4 |
| 20260831204553 | 99 | 197 | 5.0 | 18.0 | 0.00 | 0.00 | 0.00 | 18 | 1012.7 |
| 20260831204053 | 98 | 183 | 7.0 | 18.0 | 0.00 | 0.00 | 0.00 | 18 | 1012.8 |
| 20260831203553 | 97 | 186 | 6.0 | 13.0 | 0.00 | 0.00 | 0.00 | 18 | 1012.8 |
| 20260831202553 | 96 | 117 | 4.0 | 13.0 | 0.00 | 0.00 | 0.00 | 20 | 1012.8 |
| 20260831202053 | 95 | 214 | 2.0 | 11.0 | 0.00 | 0.00 | 0.00 | 22 | 1013.0 |
| 20260831201553 | 95 | 185 | 4.0 | 17.0 | 0.00 | 0.00 | 0.00 | 21 | 1012.9 |
| 20260831200553 | 96 | 107 | 4.0 | 15.0 | 0.00 | 0.00 | 0.00 | 22 | 1013.3 |
| 20260831200053 | 97 | 126 | 4.0 | 12.0 | 0.00 | 0.00 | 0.00 | 22 | 1013.4 |
| 20260831195053 | 95 | 148 | 3.0 | 13.0 | 0.00 | 0.00 | 0.00 | 21 | 1013.4 |
| 20260831194553 | 95 | 120 | 5.0 | 16.0 | 0.00 | 0.00 | 0.00 | 23 | 1013.6 |
| 20260831194053 | 95 | 135 | 4.0 | 16.0 | 0.00 | 0.00 | 0.00 | 23 | 1013.6 |
| 20260831193553 | 94 | 92 | 16.0 | 16.0 | 0.00 | 0.00 | 0.00 | 23 | 1013.7 |
| 20260831193053 | 95 | 151 | 4.0 | 13.0 | 0.00 | 0.00 | 0.00 | 23 | 1013.8 |
| 20260831192053 | 94 | 163 | 4.0 | 11.0 | 0.00 | 0.00 | 0.00 | 23 | 1013.8 |
| 20260831191052 | 94 | 146 | 4.0 | 13.0 | 0.00 | 0.00 | 0.00 | 24 | 1014.1 |
| 20260831190553 | 93 | 84 | 8.0 | 14.0 | 0.00 | 0.00 | 0.00 | 26 | 1013.9 |
| 20260831190052 | 93 | 155 | 6.0 | 15.0 | 0.00 | 0.00 | 0.00 | 25 | 1013.9 |
| 20260831185553 | 93 | 115 | 8.0 | 15.0 | 0.00 | 0.00 | 0.00 | 25 | 1014.2 |
| 20260831185052 | 94 | 114 | 4.0 | 14.0 | 0.00 | 0.00 | 0.00 | 25 | 1014.3 |
| 20260831184553 | 93 | 135 | 1.0 | 14.0 | 0.00 | 0.00 | 0.00 | 24 | 1014.1 |
| 20260831183052 | 93 | 109 | 10.0 | 13.0 | 0.00 | 0.00 | 0.00 | 24 | 1014.3 |
| 20260831182553 | 92 | 115 | 4.0 | 15.0 | 0.00 | 0.00 | 0.00 | 25 | 1014.1 |
| 20260831182053 | 92 | 122 | 9.0 | 15.0 | 0.00 | 0.00 | 0.00 | 24 | 1014.1 |
| 20260831181552 | 93 | 132 | 4.0 | 11.0 | 0.00 | 0.00 | 0.00 | 25 | 1014.2 |
| 20260831181052 | 92 | 101 | 10.0 | 15.0 | 0.00 | 0.00 | 0.00 | 25 | 1014.2 |
| 20260831180052 | 91 | 169 | 8.0 | 12.0 | 0.00 | 0.00 | 0.00 | 25 | 1014.2 |
| 20260831175553 | 91 | 123 | 3.0 | 13.0 | 0.00 | 0.00 | 0.00 | 24 | 1014.4 |
| 20260831175052 | 91 | 161 | 3.0 | 19.0 | 0.00 | 0.00 | 0.00 | 25 | 1014.4 |
| 20260831174554 | 91 | 137 | 7.0 | 19.0 | 0.00 | 0.00 | 0.00 | 26 | 1014.3 |
| 20260831174053 | 91 | 161 | 3.0 | 12.0 | 0.00 | 0.00 | 0.00 | 27 | 1014.6 |
| 20260831173553 | 90 | 130 | 1.0 | 14.0 | 0.00 | 0.00 | 0.00 | 26 | 1014.4 |
| 20260831173053 | 90 | 103 | 9.0 | 15.0 | 0.00 | 0.00 | 0.00 | 27 | 1014.3 |
| 20260831172552 | 90 | 117 | 3.0 | 15.0 | 0.00 | 0.00 | 0.00 | 27 | 1014.5 |
| 20260831172053 | 90 | 79 | 8.0 | 13.0 | 0.00 | 0.00 | 0.00 | 27 | 1014.5 |
| 20260831171553 | 90 | 123 | 4.0 | 13.0 | 0.00 | 0.00 | 0.00 | 28 | 1014.5 |
| 20260831171053 | 90 | 86 | 10.0 | 15.0 | 0.00 | 0.00 | 0.00 | 28 | 1014.4 |
| 20260831170552 | 89 | 85 | 6.0 | 15.0 | 0.00 | 0.00 | 0.00 | 28 | 1014.5 |
| 20260831170052 | 90 | 88 | 7.0 | 13.0 | 0.00 | 0.00 | 0.00 | 29 | 1014.4 |
| 20260831165553 | 89 | 87 | 9.0 | 12.0 | 0.00 | 0.00 | 0.00 | 29 | 1014.6 |
| 20260831165053 | 89 | 121 | 8.0 | 12.0 | 0.00 | 0.00 | 0.00 | 29 | 1014.5 |
| 20260831164554 | 89 | 105 | 2.0 | 12.0 | 0.00 | 0.00 | 0.00 | 28 | 1014.3 |
| 20260831164052 | 88 | 118 | 9.0 | 13.0 | 0.00 | 0.00 | 0.00 | 27 | 1014.2 |
| 20260831163052 | 88 | 113 | 13.0 | 17.0 | 0.00 | 0.00 | 0.00 | 27 | 1014.3 |
| 20260831162553 | 87 | 103 | 9.0 | 10.0 | 0.00 | 0.00 | 0.00 | 31 | 1014.3 |
| 20260831162052 | 87 | 111 | 7.0 | 10.0 | 0.00 | 0.00 | 0.00 | 28 | 1014.4 |
| 20260831161552 | 86 | 121 | 5.0 | 11.0 | 0.00 | 0.00 | 0.00 | 27 | 1014.2 |
| 20260831161053 | 86 | 136 | 4.0 | 11.0 | 0.00 | 0.00 | 0.00 | 27 | 1014.3 |
| 20260831160552 | 86 | 150 | 3.0 | 8.0 | 0.00 | 0.00 | 0.00 | 27 | 1014.4 |
| 20260831160052 | 86 | 117 | 2.0 | 15.0 | 0.00 | 0.00 | 0.00 | 28 | 1014.4 |
| 20260831155553 | 86 | 103 | 3.0 | 15.0 | 0.00 | 0.00 | 0.00 | 27 | 1014.5 |
| 20260831155052 | 86 | 118 | 2.0 | 10.0 | 0.00 | 0.00 | 0.00 | 26 | 1014.5 |
| 20260831154552 | 85 | 98 | 8.0 | 9.0 | 0.00 | 0.00 | 0.00 | 27 | 1014.4 |
| 20260831154052 | 85 | 360 | 1.0 | 9.0 | 0.00 | 0.00 | 0.00 | 27 | 1014.3 |
| 20260831153552 | 84 | 360 | 3.0 | 9.0 | 0.00 | 0.00 | 0.00 | 27 | 1014.2 |
| 20260831152553 | 84 | 360 | 4.0 | 8.0 | 0.00 | 0.00 | 0.00 | 27 | 1014.1 |
| 20260831152052 | 84 | 360 | 1.0 | 8.0 | 0.00 | 0.00 | 0.00 | 28 | 1014.1 |
| 20260831150552 | 84 | 360 | 3.0 | 8.0 | 0.00 | 0.00 | 0.00 | 29 | 1014.0 |
| 20260831150053 | 83 | 360 | 8.0 | 8.0 | 0.00 | 0.00 | 0.00 | 30 | 1013.9 |
| 20260831145552 | 83 | 360 | 4.0 | 6.0 | 0.00 | 0.00 | 0.00 | 30 | 1013.9 |
| 20260831144552 | 82 | 360 | 2.0 | 7.0 | 0.00 | 0.00 | 0.00 | 31 | 1013.9 |
| 20260831144053 | 82 | 360 | 6.0 | 7.0 | 0.00 | 0.00 | 0.00 | 31 | 1013.9 |
| 20260831143552 | 81 | 360 | 4.0 | 7.0 | 0.00 | 0.00 | 0.00 | 32 | 1013.7 |
| 20260831142553 | 80 | 78 | 4.0 | 7.0 | 0.00 | 0.00 | 0.00 | 34 | 1013.5 |
| 20260831142052 | 78 | 74 | 3.0 | 7.0 | 0.00 | 0.00 | 0.00 | 35 | 1013.3 |
| 20260831141553 | 77 | 78 | 4.0 | 5.0 | 0.00 | 0.00 | 0.00 | 37 | 1012.9 |
| 20260831140552 | 77 | 78 | 2.0 | 4.0 | 0.00 | 0.00 | 0.00 | 37 | 1012.8 |
| 20260831140053 | 76 | 78 | 2.0 | 6.0 | 0.00 | 0.00 | 0.00 | 37 | 1012.8 |
| 20260831135552 | 77 | 78 | 3.0 | 6.0 | 0.00 | 0.00 | 0.00 | 37 | 1013.0 |
| 20260831135053 | 77 | 78 | 3.0 | 4.0 | 0.00 | 0.00 | 0.00 | 36 | 1012.9 |
| 20260831134552 | 77 | 78 | 2.0 | 3.0 | 0.00 | 0.00 | 0.00 | 36 | 1012.8 |
| 20260831134053 | 77 | 78 | 1.0 | 2.0 | 0.00 | 0.00 | 0.00 | 34 | 1012.6 |
| 20260831133552 | 77 | 78 | 1.0 | 3.0 | 0.00 | 0.00 | 0.00 | 34 | 1012.7 |
| 20260831133053 | 77 | 78 | 2.0 | 3.0 | 0.00 | 0.00 | 0.00 | 33 | 1012.5 |
| 20260831132052 | 77 | 78 | 1.0 | 4.0 | 0.00 | 0.00 | 0.00 | 33 | 1012.5 |
| 20260831131552 | 77 | 78 | 0.0 | 4.0 | 0.00 | 0.00 | 0.00 | 33 | 1012.5 |
| 20260831130552 | 77 | 78 | 2.0 | 4.0 | 0.00 | 0.00 | 0.00 | 33 | 1012.4 |
| 20260831130052 | 76 | 78 | 1.0 | 4.0 | 0.00 | 0.00 | 0.00 | 33 | 1012.1 |
| 20260831125552 | 76 | 78 | 1.0 | 5.0 | 0.00 | 0.00 | 0.00 | 33 | 1012.3 |
| 20260831125052 | 76 | 78 | 2.0 | 6.0 | 0.00 | 0.00 | 0.00 | 33 | 1012.3 |
| 20260831124552 | 76 | 78 | 4.0 | 6.0 | 0.00 | 0.00 | 0.00 | 34 | 1012.2 |
| 20260831123552 | 75 | 71 | 3.0 | 4.0 | 0.00 | 0.00 | 0.00 | 34 | 1011.9 |
| 20260831123052 | 75 | 71 | 2.0 | 3.0 | 0.00 | 0.00 | 0.00 | 35 | 1012.0 |
| 20260831122552 | 75 | 71 | 2.0 | 3.0 | 0.00 | 0.00 | 0.00 | 34 | 1011.9 |
| 20260831122052 | 75 | 71 | 1.0 | 2.0 | 0.00 | 0.00 | 0.00 | 34 | 1012.0 |
| 20260831121552 | 75 | 71 | 1.0 | 2.0 | 0.00 | 0.00 | 0.00 | 34 | 1012.0 |
| 20260831121052 | 75 | 71 | 0.0 | 5.0 | 0.00 | 0.00 | 0.00 | 34 | 1011.9 |
| 20260831120552 | 74 | 71 | 1.0 | 5.0 | 0.00 | 0.00 | 0.00 | 34 | 1011.9 |
| 20260831120053 | 74 | 67 | 3.0 | 4.0 | 0.00 | 0.00 | 0.00 | 34 | 1011.9 |
| 20260831115552 | 74 | 64 | 2.0 | 3.0 | 0.00 | 0.00 | 0.00 | 34 | 1011.9 |
| 20260831115052 | 74 | 64 | 2.0 | 3.0 | 0.00 | 0.00 | 0.00 | 34 | 1011.8 |
| 20260831114052 | 74 | 355 | 2.0 | 3.0 | 0.00 | 0.00 | 0.00 | 33 | 1011.8 |
| 20260831113552 | 74 | 303 | 0.0 | 3.0 | 0.00 | 0.00 | 0.00 | 33 | 1011.7 |
| 20260831113052 | 74 | 303 | 3.0 | 3.0 | 0.00 | 0.00 | 0.00 | 32 | 1011.7 |
| 20260831112552 | 74 | 302 | 2.0 | 2.0 | 0.00 | 0.00 | 0.00 | 32 | 1011.8 |
| 20260831112052 | 74 | 302 | 1.0 | 2.0 | 0.00 | 0.00 | 0.00 | 32 | 1011.7 |
| 20260831111552 | 74 | 302 | 0.0 | 2.0 | 0.00 | 0.00 | 0.00 | 31 | 1011.6 |
| 20260831111052 | 74 | 302 | 0.0 | 1.0 | 0.00 | 0.00 | 0.00 | 31 | 1011.5 |
| 20260831110552 | 74 | 301 | 0.0 | 1.0 | 0.00 | 0.00 | 0.00 | 30 | 1011.7 |
| 20260831110052 | 75 | 301 | 0.0 | 2.0 | 0.00 | 0.00 | 0.00 | 30 | 1011.6 |
| 20260831105552 | 75 | 301 | 0.0 | 2.0 | 0.00 | 0.00 | 0.00 | 30 | 1011.6 |
| 20260831105052 | 75 | 301 | 1.0 | 2.0 | 0.00 | 0.00 | 0.00 | 29 | 1011.4 |
| 20260831104552 | 75 | 301 | 1.0 | 2.0 | 0.00 | 0.00 | 0.00 | 29 | 1011.2 |
| 20260831103552 | 75 | 302 | 1.0 | 3.0 | 0.00 | 0.00 | 0.00 | 29 | 1011.4 |
| 20260831103052 | 75 | 302 | 0.0 | 2.0 | 0.00 | 0.00 | 0.00 | 29 | 1011.3 |
| 20260831102552 | 76 | 302 | 0.0 | 3.0 | 0.00 | 0.00 | 0.00 | 29 | 1011.4 |
| 20260831102052 | 76 | 302 | 1.0 | 3.0 | 0.00 | 0.00 | 0.00 | 30 | 1011.4 |
| 20260831101552 | 76 | 302 | 1.0 | 3.0 | 0.00 | 0.00 | 0.00 | 30 | 1011.4 |
| 20260831100552 | 76 | 304 | 3.0 | 4.0 | 0.00 | 0.00 | 0.00 | 29 | 1011.3 |
| 20260831095552 | 76 | 247 | 1.0 | 3.0 | 0.00 | 0.00 | 0.00 | 27 | 1011.3 |
| 20260831095052 | 76 | 247 | 2.0 | 4.0 | 0.00 | 0.00 | 0.00 | 27 | 1011.2 |
| 20260831094552 | 77 | 247 | 2.0 | 4.0 | 0.00 | 0.00 | 0.00 | 27 | 1011.3 |
| 20260831094052 | 77 | 246 | 1.0 | 4.0 | 0.00 | 0.00 | 0.00 | 26 | 1011.3 |
| 20260831093052 | 77 | 248 | 1.0 | 3.0 | 0.00 | 0.00 | 0.00 | 26 | 1011.3 |
| 20260831092552 | 77 | 249 | 2.0 | 3.0 | 0.00 | 0.00 | 0.00 | 26 | 1011.3 |
| 20260831092052 | 77 | 249 | 1.0 | 2.0 | 0.00 | 0.00 | 0.00 | 26 | 1011.2 |
| 20260831091552 | 78 | 249 | 0.0 | 2.0 | 0.00 | 0.00 | 0.00 | 26 | 1011.2 |
| 20260831091052 | 78 | 248 | 0.0 | 2.0 | 0.00 | 0.00 | 0.00 | 26 | 1011.2 |
| 20260831090552 | 78 | 248 | 1.0 | 3.0 | 0.00 | 0.00 | 0.00 | 25 | 1011.3 |
| 20260831090052 | 78 | 249 | 1.0 | 4.0 | 0.00 | 0.00 | 0.00 | 25 | 1011.3 |
| 20260831085552 | 78 | 248 | 3.0 | 4.0 | 0.00 | 0.00 | 0.00 | 24 | 1011.2 |
| 20260831084552 | 79 | 249 | 3.0 | 6.0 | 0.00 | 0.00 | 0.00 | 24 | 1011.4 |
| 20260831084052 | 79 | 255 | 5.0 | 5.0 | 0.00 | 0.00 | 0.00 | 23 | 1011.4 |
| 20260831083552 | 79 | 294 | 2.0 | 3.0 | 0.00 | 0.00 | 0.00 | 23 | 1011.4 |
| 20260831083052 | 79 | 294 | 2.0 | 3.0 | 0.00 | 0.00 | 0.00 | 23 | 1011.3 |
| 20260831082552 | 80 | 294 | 2.0 | 3.0 | 0.00 | 0.00 | 0.00 | 23 | 1011.4 |
| 20260831081552 | 80 | 294 | 1.0 | 5.0 | 0.00 | 0.00 | 0.00 | 23 | 1011.4 |
| 20260831080552 | 80 | 278 | 1.0 | 5.0 | 0.00 | 0.00 | 0.00 | 22 | 1011.4 |
| 20260831074552 | 80 | 264 | 6.0 | 6.0 | 0.00 | 0.00 | 0.00 | 22 | 1011.3 |
| 20260831074052 | 80 | 270 | 5.0 | 5.0 | 0.00 | 0.00 | 0.00 | 22 | 1011.3 |
| 20260831073552 | 81 | 280 | 2.0 | 5.0 | 0.00 | 0.00 | 0.00 | 22 | 1011.6 |
| 20260831073052 | 81 | 257 | 4.0 | 5.0 | 0.00 | 0.00 | 0.00 | 22 | 1011.7 |
| 20260831071552 | 81 | 329 | 4.0 | 5.0 | 0.00 | 0.00 | 0.00 | 21 | 1011.5 |
| 20260831071051 | 82 | 333 | 1.0 | 6.0 | 0.00 | 0.00 | 0.00 | 21 | 1011.6 |
| 20260831065552 | 82 | 263 | 1.0 | 4.0 | 0.00 | 0.00 | 0.00 | 22 | 1011.8 |
| 20260831065051 | 82 | 262 | 0.0 | 4.0 | 0.00 | 0.00 | 0.00 | 21 | 1011.7 |
| 20260831064552 | 83 | 254 | 0.0 | 4.0 | 0.00 | 0.00 | 0.00 | 21 | 1011.7 |
| 20260831063552 | 83 | 248 | 2.0 | 4.0 | 0.00 | 0.00 | 0.00 | 21 | 1011.8 |
| 20260831063052 | 83 | 246 | 0.0 | 5.0 | 0.00 | 0.00 | 0.00 | 21 | 1011.8 |
| 20260831062552 | 83 | 246 | 2.0 | 5.0 | 0.00 | 0.00 | 0.00 | 21 | 1011.7 |
| 20260831062052 | 83 | 250 | 3.0 | 6.0 | 0.00 | 0.00 | 0.00 | 21 | 1011.6 |
| 20260831061552 | 83 | 259 | 3.0 | 6.0 | 0.00 | 0.00 | 0.00 | 22 | 1011.4 |
| 20260831061051 | 83 | 222 | 2.0 | 4.0 | 0.00 | 0.00 | 0.00 | 22 | 1011.5 |
| 20260831060552 | 83 | 263 | 3.0 | 5.0 | 0.00 | 0.00 | 0.00 | 22 | 1011.5 |
| 20260831060052 | 83 | 266 | 3.0 | 5.0 | 0.00 | 0.00 | 0.00 | 22 | 1011.5 |
| 20260831055552 | 83 | 270 | 3.0 | 5.0 | 0.00 | 0.00 | 0.00 | 21 | 1011.4 |
| 20260831055052 | 83 | 291 | 2.0 | 4.0 | 0.00 | 0.00 | 0.00 | 21 | 1011.3 |
| 20260831054552 | 84 | 281 | 2.0 | 4.0 | 0.00 | 0.00 | 0.00 | 21 | 1011.4 |
| 20260831053552 | 84 | 271 | 1.0 | 4.0 | 0.00 | 0.00 | 0.00 | 21 | 1011.3 |
| 20260831053051 | 84 | 279 | 1.0 | 3.0 | 0.00 | 0.00 | 0.00 | 20 | 1011.4 |
| 20260831052552 | 84 | 279 | 3.0 | 3.0 | 0.00 | 0.00 | 0.00 | 20 | 1011.5 |
| 20260831052052 | 84 | 279 | 0.0 | 2.0 | 0.00 | 0.00 | 0.00 | 20 | 1011.6 |
| 20260831051051 | 85 | 279 | 0.0 | 4.0 | 0.00 | 0.00 | 0.00 | 20 | 1011.2 |
| 20260831050551 | 85 | 273 | 1.0 | 4.0 | 0.00 | 0.00 | 0.00 | 19 | 1011.3 |
| 20260831050052 | 85 | 280 | 2.0 | 4.0 | 0.00 | 0.00 | 0.00 | 19 | 1011.5 |
| 20260831045551 | 85 | 360 | 1.0 | 2.0 | 0.00 | 0.00 | 0.00 | 20 | 1011.2 |
| 20260831045051 | 85 | 360 | 1.0 | 3.0 | 0.00 | 0.00 | 0.00 | 19 | 1011.3 |
| 20260831044552 | 85 | 360 | 1.0 | 5.0 | 0.00 | 0.00 | 0.00 | 19 | 1011.3 |
| 20260831044051 | 85 | 360 | 3.0 | 5.0 | 0.00 | 0.00 | 0.00 | 19 | 1011.1 |
| 20260831043052 | 86 | 298 | 4.0 | 5.0 | 0.00 | 0.00 | 0.00 | 20 | 1011.4 |
| 20260831042551 | 86 | 270 | 1.0 | 3.0 | 0.00 | 0.00 | 0.00 | 20 | 1011.5 |
| 20260831042051 | 86 | 270 | 0.0 | 3.0 | 0.00 | 0.00 | 0.00 | 20 | 1011.4 |
| 20260831041552 | 86 | 270 | 2.0 | 4.0 | 0.00 | 0.00 | 0.00 | 20 | 1011.3 |
| 20260831041051 | 87 | 269 | 0.0 | 4.0 | 0.00 | 0.00 | 0.00 | 20 | 1011.4 |
| 20260831040552 | 87 | 252 | 0.0 | 0.0 | 0.00 | 0.00 | 0.00 | 20 | 1011.3 |
| 20260831040051 | 87 | 253 | 0.0 | 0.0 | 0.00 | 0.00 | 0.00 | 19 | 1011.3 |
| 20260831035551 | 87 | 360 | 0.0 | 0.0 | 0.00 | 0.00 | 0.00 | 19 | 1011.0 |
| 20260831035051 | 88 | 360 | 0.0 | 1.0 | 0.00 | 0.00 | 0.00 | 19 | 1011.1 |
| 20260831034552 | 88 | 360 | 0.0 | 2.0 | 0.00 | 0.00 | 0.00 | 19 | 1011.0 |
| 20260831034052 | 88 | 360 | 0.0 | 4.0 | 0.00 | 0.00 | 0.00 | 18 | 1010.8 |
| 20260831033552 | 88 | 360 | 0.0 | 4.0 | 0.00 | 0.00 | 0.00 | 18 | 1010.7 |
| 20260831033051 | 88 | 360 | 3.0 | 4.0 | 0.00 | 0.00 | 0.00 | 18 | 1010.5 |
| 20260831032551 | 88 | 360 | 1.0 | 3.0 | 0.00 | 0.00 | 0.00 | 18 | 1010.4 |
| 20260831032052 | 88 | 360 | 1.0 | 3.0 | 0.00 | 0.00 | 0.00 | 18 | 1010.3 |
| 20260831031551 | 89 | 360 | 2.0 | 3.0 | 0.00 | 0.00 | 0.00 | 18 | 1010.4 |
| 20260831031051 | 89 | 360 | 1.0 | 3.0 | 0.00 | 0.00 | 0.00 | 19 | 1010.3 |
| 20260831030051 | 90 | 360 | 1.0 | 1.0 | 0.00 | 0.00 | 0.00 | 18 | 1010.4 |
| 20260831025551 | 90 | 360 | 0.0 | 1.0 | 0.00 | 0.00 | 0.00 | 19 | 1010.3 |
| 20260831025052 | 90 | 360 | 0.0 | 2.0 | 0.00 | 0.00 | 0.00 | 18 | 1010.0 |
| 20260831024552 | 91 | 360 | 0.0 | 2.0 | 0.00 | 0.00 | 0.00 | 18 | 1010.1 |
| 20260831023551 | 91 | 360 | 0.0 | 4.0 | 0.00 | 0.00 | 0.00 | 17 | 1010.1 |
| 20260831023052 | 91 | 360 | 2.0 | 4.0 | 0.00 | 0.00 | 0.00 | 17 | 1010.0 |
| 20260831021551 | 92 | 360 | 1.0 | 4.0 | 0.00 | 0.00 | 0.00 | 17 | 1010.0 |
| 20260831020552 | 93 | 360 | 2.0 | 5.0 | 0.00 | 0.00 | 0.00 | 17 | 1010.1 |
| 20260831020051 | 93 | 360 | 3.0 | 5.0 | 0.00 | 0.00 | 0.00 | 17 | 1010.2 |
| 20260831015051 | 93 | 360 | 0.0 | 4.0 | 0.00 | 0.00 | 0.00 | 17 | 1009.9 |
| 20260831014552 | 93 | 360 | 0.0 | 4.0 | 0.00 | 0.00 | 0.00 | 17 | 1010.0 |
| 20260831014051 | 93 | 360 | 0.0 | 3.0 | 0.00 | 0.00 | 0.00 | 16 | 1010.0 |
| 20260831013551 | 94 | 360 | 0.0 | 4.0 | 0.00 | 0.00 | 0.00 | 17 | 1010.3 |
| 20260831013051 | 94 | 360 | 0.0 | 7.0 | 0.00 | 0.00 | 0.00 | 17 | 1010.1 |
| 20260831012552 | 94 | 360 | 1.0 | 7.0 | 0.00 | 0.00 | 0.00 | 16 | 1010.1 |
| 20260831012051 | 94 | 360 | 3.0 | 5.0 | 0.00 | 0.00 | 0.00 | 16 | 1010.0 |
| 20260831011051 | 94 | 360 | 1.0 | 5.0 | 0.00 | 0.00 | 0.00 | 17 | 1010.2 |
| 20260831010051 | 94 | 360 | 1.0 | 5.0 | 0.00 | 0.00 | 0.00 | 16 | 1010.3 |
| 20260831005051 | 94 | 360 | 0.0 | 7.0 | 0.00 | 0.00 | 0.00 | 17 | 1010.3 |
| 20260831004552 | 94 | 360 | 5.0 | 9.0 | 0.00 | 0.00 | 0.00 | 17 | 1010.4 |
| 20260831004051 | 94 | 360 | 1.0 | 10.0 | 0.00 | 0.00 | 0.00 | 16 | 1010.5 |
| 20260831003051 | 94 | 360 | 0.0 | 11.0 | 0.00 | 0.00 | 0.00 | 17 | 1010.4 |
| 20260831002551 | 94 | 360 | 1.0 | 7.0 | 0.00 | 0.00 | 0.00 | 17 | 1010.3 |
| 20260831002051 | 94 | 360 | 0.0 | 8.0 | 0.00 | 0.00 | 0.00 | 17 | 1010.3 |
| 20260831001551 | 94 | 360 | 5.0 | 9.0 | 0.00 | 0.00 | 0.00 | 17 | 1010.5 |
| 20260830235551 | 94 | 360 | 5.0 | 15.0 | 0.00 | 0.00 | 0.00 | 16 | 1010.4 |
| 20260830235051 | 94 | 360 | 2.0 | 15.0 | 0.00 | 0.00 | 0.00 | 16 | 1010.8 |
| 20260830234551 | 95 | 360 | 9.0 | 13.0 | 0.00 | 0.00 | 0.00 | 16 | 1011.0 |
| 20260830234051 | 95 | 360 | 5.0 | 13.0 | 0.00 | 0.00 | 0.00 | 16 | 1011.1 |
| 20260830233551 | 95 | 360 | 4.0 | 13.0 | 0.00 | 0.00 | 0.00 | 16 | 1011.1 |
| 20260830232551 | 94 | 360 | 5.0 | 10.0 | 0.00 | 0.00 | 0.00 | 16 | 1010.9 |
| 20260830231551 | 95 | 360 | 5.0 | 11.0 | 0.00 | 0.00 | 0.00 | 16 | 1011.1 |
| 20260830230551 | 94 | 360 | 2.0 | 10.0 | 0.00 | 0.00 | 0.00 | 17 | 1011.1 |
| 20260830230051 | 94 | 360 | 4.0 | 12.0 | 0.00 | 0.00 | 0.00 | 16 | 1011.3 |